Weather History for ENRY - February, 2013

Change the Weather History Date:

Tuesday, February 5, 2013

  Actual Average Record
Temperature  
Mean Temperature 24 °F -  
Max Temperature 26 °F 34 °F 48 °F (2004)
Min Temperature 22 °F 24 °F -4 °F (2001)
Degree Days  
Heating Degree Days 41    
Moisture  
Dew Point 24 °F    
Average Humidity 95    
Maximum Humidity 100    
Minimum Humidity 93    
Precipitation  
Precipitation 0.01 in - - ()
Sea Level Pressure  
Sea Level Pressure 28.99 in    
Wind  
Wind Speed 3 mph ()    
Max Wind Speed 9 mph    
Max Gust Speed -    
Visibility 4.7 miles    
Events Fog , Snow    
Averages and records for this station are not official NWS values.
T = Trace of Precipitation, MM = Missing Value Source: Averaged Metar Reports

Daily Weather History Graph

Daily Weather History Graph

Search for Another Location

Airport or City:

Trip Planner

Search our weather history database for the weather conditions in past years. The results will help you decide how hot, cold, wet, or windy it might be!

Date:

Astronomy

Feb. 05, 2013 Rise Set
Actual Time 8:17 AM CET 4:44 PM CET
Civil Twilight 7:32 AM CET 5:30 PM CET
Nautical Twilight 6:43 AM CET 6:19 PM CET
Astronomical Twilight 5:56 AM CET 7:06 PM CET
Moon 4:10 AM CET (2/5) 11:15 AM CET (2/5)
Length of Visible Light 9h 57m
Length of Day
8h 27m
Waning Crescent, 29% of the Moon is Illuminated
Feb 5
Waning Crescent
Feb 10
New
Feb 17
First Quarter
Feb 25
Full
Mar 4
Last Quarter

Hourly Weather History & Observations

Time (CET) Temp. Windchill Dew Point Humidity Pressure Visibility Wind Dir Wind Speed Gust Speed Precip Events Conditions
12:20 AM 24.8 °F - 24.8 °F 100% 28.91 in 0.1 mi WSW 2.3 mph - N/A Fog Light Freezing Fog
12:50 AM 24.8 °F - 23.0 °F 93% 28.91 in 1.5 mi Calm Calm - N/A Fog Patches of Fog
1:00 AM 24 °F - 24 °F 100% 28.94 in 3 mi Calm Calm - - Fog Fog
1:20 AM 24.8 °F - 24.8 °F 100% 28.91 in 3.1 mi Calm Calm - N/A Fog Patches of Fog
1:50 AM 23.0 °F - 23.0 °F 100% 28.91 in 5.0 mi Variable 1.2 mph - N/A   Unknown
2:20 AM 24.8 °F 20.5 °F 23.0 °F 93% 28.91 in 5.6 mi Variable 3.5 mph - N/A   Mostly Cloudy
2:50 AM 23.0 °F - 23.0 °F 100% 28.91 in 6.2 mi ENE 2.3 mph - N/A   Mostly Cloudy
3:20 AM 24.8 °F - 24.8 °F 100% 28.91 in 6.2 mi Variable 1.2 mph - N/A   Unknown
3:50 AM 26.6 °F 20.0 °F 24.8 °F 93% 28.91 in 1.7 mi South 5.8 mph - N/A Snow Light Snow
4:20 AM 26.6 °F 17.5 °F 26.6 °F 100% 28.88 in 6.2 mi SSW 9.2 mph - N/A   Overcast
4:50 AM 26.6 °F 20.0 °F 26.6 °F 100% 28.88 in 6.2 mi SSW 5.8 mph - N/A   Overcast
5:20 AM 28.4 °F - 26.6 °F 93% 28.91 in 6.2 mi Variable 1.2 mph - N/A   Overcast
5:50 AM 24.8 °F - 24.8 °F 100% 28.91 in 3.7 mi North 2.3 mph - N/A   Overcast
6:20 AM 24.8 °F 19.1 °F 24.8 °F 100% 28.91 in 3.7 mi North 4.6 mph - N/A   Mostly Cloudy
6:50 AM 24.8 °F 20.5 °F 23.0 °F 93% 28.91 in 6.2 mi NNW 3.5 mph - N/A   Mostly Cloudy
7:00 AM 24 °F - 23 °F 93% 28.94 in 6 mi NNW 4.5 mph - -   Partly Cloudy
7:20 AM 23.0 °F 18.4 °F 21.2 °F 93% 28.91 in 5.6 mi NNW 3.5 mph - N/A   Mostly Cloudy
7:50 AM 23.0 °F - 21.2 °F 93% 28.91 in 5.6 mi Variable 2.3 mph - N/A Snow Light Snow
8:20 AM 23.0 °F - 21.2 °F 93% 28.91 in 4.3 mi Calm Calm - N/A Snow Light Snow
8:50 AM 23.0 °F - 23.0 °F 100% 28.94 in 5.6 mi North 2.3 mph - N/A   Mostly Cloudy
9:20 AM 23.0 °F - 23.0 °F 100% 28.94 in 5.6 mi Variable 2.3 mph - N/A   Mostly Cloudy
9:50 AM 23.0 °F - 23.0 °F 100% 28.94 in 6.2 mi Calm Calm - N/A   Mostly Cloudy
10:20 AM 24.8 °F - 23.0 °F 93% 28.94 in 6.2 mi ENE 2.3 mph - N/A   Mostly Cloudy
10:50 AM 24.8 °F - 23.0 °F 93% 28.97 in 6.2 mi ENE 2.3 mph - N/A   Mostly Cloudy
11:20 AM 24.8 °F - 24.8 °F 100% 28.97 in 4.3 mi Variable 1.2 mph - N/A   Overcast
11:50 AM 26.6 °F 21.2 °F 24.8 °F 93% 28.97 in 4.3 mi NW 4.6 mph - N/A   Overcast
12:20 PM 26.6 °F 21.2 °F 24.8 °F 93% 28.97 in 4.3 mi NNW 4.6 mph - N/A   Mostly Cloudy
12:50 PM 26.6 °F 20.0 °F 24.8 °F 93% 29.00 in 1.4 mi North 5.8 mph - N/A Snow Light Snow
1:00 PM 27 °F - 26 °F 93% 29.02 in 2 mi NNW 4.5 mph - - Snow Light Snow
1:31 PM 26.6 °F 21.2 °F 24.8 °F 93% 29.00 in 5.0 mi NNW 4.6 mph - N/A Snow Light Snow
1:50 PM 26.6 °F 21.2 °F 24.8 °F 93% 29.00 in 6.2 mi NNW 4.6 mph - N/A   Mostly Cloudy
2:20 PM 26.6 °F 20.0 °F 24.8 °F 93% 29.00 in 6.2 mi North 5.8 mph - N/A   Mostly Cloudy
2:50 PM 26.6 °F 19.1 °F 24.8 °F 93% 29.00 in 6.2 mi North 6.9 mph - N/A   Mostly Cloudy
3:20 PM 26.6 °F 22.6 °F 24.8 °F 93% 29.03 in 6.2 mi NNW 3.5 mph - N/A Snow Light Snow
3:50 PM 26.6 °F - 24.8 °F 93% 29.03 in 3.7 mi Variable 2.3 mph - N/A Snow Light Snow
4:20 PM 26.6 °F 22.6 °F 24.8 °F 93% 29.03 in - NNW 3.5 mph - N/A   Light Ice Pellets
4:50 PM 26.6 °F 22.6 °F 24.8 °F 93% 29.03 in - North 3.5 mph - N/A Snow Light Snow
5:20 PM 26.6 °F 22.6 °F 24.8 °F 93% 29.06 in 3.7 mi NNW 3.5 mph - N/A Snow Light Snow
5:50 PM 24.8 °F 20.5 °F 24.8 °F 100% 29.06 in 3.7 mi WNW 3.5 mph - N/A   Mostly Cloudy
6:20 PM 24.8 °F - 23.0 °F 93% 29.06 in 4.3 mi Variable 2.3 mph - N/A Fog Patches of Fog
6:50 PM 23.0 °F 17.0 °F 23.0 °F 100% 29.06 in 3.7 mi NW 4.6 mph - N/A Fog Patches of Fog
7:00 PM 24 °F - 24 °F 97% 29.10 in 4 mi NW 4.5 mph - - Snow Light Snow
7:20 PM 23.0 °F 17.0 °F 23.0 °F 100% 29.09 in 5.0 mi NW 4.6 mph - N/A   Partly Cloudy
7:50 PM 24.8 °F 20.5 °F 23.0 °F 93% 29.09 in 5.0 mi NNW 3.5 mph - N/A   Partly Cloudy
8:20 PM 24.8 °F - 23.0 °F 93% 29.09 in - NNW 1.2 mph - N/A   Clear
8:50 PM 24.8 °F - 23.0 °F 93% 29.09 in - NNW 2.3 mph - N/A   Clear
9:20 PM 24.8 °F 20.5 °F 23.0 °F 93% 29.12 in - NNW 3.5 mph - N/A   Clear
9:50 PM 23.0 °F 17.0 °F 23.0 °F 100% 29.12 in - NNW 4.6 mph - N/A   Clear
10:20 PM 24.8 °F 19.1 °F 23.0 °F 93% 29.12 in - NW 4.6 mph - N/A   Clear
10:50 PM 24.8 °F 17.9 °F 23.0 °F 93% 29.12 in 6.2 mi NNW 5.8 mph - N/A   Partly Cloudy
11:20 PM 26.6 °F 18.2 °F 24.8 °F 93% 29.15 in 6.2 mi NNW 8.1 mph - N/A   Partly Cloudy
11:50 PM 26.6 °F 19.1 °F 24.8 °F 93% 29.15 in 6.2 mi NNW 6.9 mph - N/A   Scattered Clouds